Tracking 29892 objects as of 21-Nov-2024
HD Live streaming from Space Station
objects crossing your sky now

DELTA 1 DEB

Track DELTA 1 DEB now!
10-day predictions


NORAD ID: 14913
Int'l Code: 1978-026GN
Perigee: 735.6 km
Apogee: 869.7 km
Inclination: 98.8 °
Period: 100.8 minutes
Semi major axis: 7173 km
RCS: 0.0152 m2 (small)
Launch date: March 5, 1978
Source: United States (US)
Launch site: AIR FORCE WESTERN TEST RANGE (AFWTR)

Note: This is SATELLITE DEBRIS
Your satellite tracking list
Your tracking list is empty




NASA's NSSDC Master Catalog

Two Line Element Set (TLE):
1 14913U 78026GN  24325.00336821  .00002117  00000-0  81713-3 0  9994
2 14913  98.8088 345.0152 0093513  47.5067  10.4502 14.28873486164870
Source of the keplerian elements: AFSPC